Preview of NWS' New Version of Forecast
This preview is not operational and should not be used for support decisions.

Regional Weather Roundup (RWR)

Issued by National Weather Service (NWS)

                            
000
ASUS45 KABQ 190601
RWRNM 
NEW MEXICO REGIONAL WEATHER ROUNDUP
NATIONAL WEATHER SERVICE ALBUQUERQUE NM
1200 AM MDT MON AUG 19 2019

NOTE: "FAIR" MEANS FEW OR NO CLOUDS BELOW 12,000 FEET AGL WITH NO
       SIGNIFICANT WEATHER OR OBSTRUCTIONS TO VISION.

      THIS PRODUCT IS RELEASED AS TWO VERSIONS.  ONE VERSION NEAR
      THE TOP OF THE HOUR CONTAINING PRELIMINARY DATA FROM ALBUQUERQUE
      AND OTHER STATIONS.  A FINAL VERSION WITH ADDITIONAL DATA IS 
      ISSUED ABOUT 10 MINUTES AFTER THE HOUR.
 
NMZ501-503-504-510>518-190700-
NORTHWEST PLATEAU/NORTHCENTRAL MOUNTAINS
  
CITY           SKY/WX    TMP DP  RH WIND       PRES   REMARKS
FARMINGTON     FAIR      66  22  18 NE5       30.10S                  
6HR MIN TEMP:  66; 6HR MAX TEMP:  94;                                

LOS ALAMOS       N/A     74  21  13 CALM      30.27R                  
SANTA FE       FAIR      63  31  30 N8        30.19R                  
6HR MIN TEMP:  61; 6HR MAX TEMP:  87;                                

TAOS             N/A     63  26  24 VRB5      30.28R                  
ANGEL FIRE     FLURRIES  41  34  76 CALM      30.40S                  

$$
NMZ402-403-502-505>509-190700-
WESTCENTRAL MOUNTAINS/SOUTHWEST MOUNTAINS
  
CITY           SKY/WX    TMP DP  RH WIND       PRES   REMARKS
GALLUP         FAIR      64  19  17 CALM      30.23R                  
6HR MIN TEMP:  59; 6HR MAX TEMP:  86;                                

GRANTS         FAIR      64  29  26 NW8       30.24S                  
SILVER CITY    FAIR      70  37  29 N12       30.15S                  

$$
NMZ407-409-411-412-190700-
SOUTHERN DESERTS
  
CITY           SKY/WX    TMP DP  RH WIND       PRES   REMARKS
DEMING         FAIR      78  41  26 W8        30.05S                  
6HR MIN TEMP:  78; 6HR MAX TEMP:  95;                                

LAS CRUCES     FAIR      81  30  15 W9        30.05S                  
HOLLOMAN AFB   FAIR      80  39  23 SE6       30.02R                  
ALAMOGORDO     FAIR      79  36  21 S9        30.02R                  
T OR C         FAIR      79  35  20 W8        30.06R                  
6HR MIN TEMP:  79; 6HR MAX TEMP:  95;                                


$$
NMZ519>523-190700-
CENTRAL VALLEYS/CENTRAL HIGHLANDS
  
CITY           SKY/WX    TMP DP  RH WIND       PRES   REMARKS
ALBUQUERQUE    MOCLDY    78  30  17 SE3       30.11R                  
6HR MIN TEMP:  77; 6HR MAX TEMP:  92;                                

CLINES CORNERS NOT AVBL                                               
BELEN          FAIR      74  29  19 W8        30.09S                  
6HR MIN TEMP:  71; 6HR MAX TEMP:  92;                                

SOCORRO        FAIR      74  33  22 W6        30.07R                  
6HR MIN TEMP:  73; 6HR MAX TEMP:  94;                                


$$
NMZ524>526-539-540-190700-
SOUTHCENTRAL MOUNTAINS
  
CITY           SKY/WX    TMP DP  RH WIND       PRES   REMARKS
RUIDOSO        FAIR      68  37  32 SW12      30.26S                  

$$
NMZ527>531-190700-
NORTHEAST HIGHLANDS/NORTHEAST PLAINS
  
CITY           SKY/WX    TMP DP  RH WIND       PRES   REMARKS
LAS VEGAS      FAIR      72  34  24 SE15      30.24S                  
6HR MIN TEMP:  63; 6HR MAX TEMP:  87;                                

RATON          FAIR      64  44  48 N8        30.21R                  
6HR MIN TEMP:  64; 6HR MAX TEMP:  88;                                

CLAYTON        FAIR      68  57  68 SE6       30.10R                  
6HR MIN TEMP:  67; 6HR MAX TEMP:  89;                                


$$
NMZ532>537-190700-
EASTCENTRAL PLAINS
  
CITY           SKY/WX    TMP DP  RH WIND       PRES   REMARKS
TUCUMCARI      FAIR      77  54  44 E6        29.98S                  
6HR MIN TEMP:  76; 6HR MAX TEMP: 101;                                

CANNON AFB     FAIR      77  51  39 S8        30.02S                  
6HR MIN TEMP:  76; 6HR MAX TEMP:  97;                                

CLOVIS AIRPORT FAIR      75  53  46 S5        30.02S                  

$$
NMZ028-029-538-190700-
SOUTHEAST PLAINS
  
CITY           SKY/WX    TMP DP  RH WIND       PRES   REMARKS
ROSWELL        FAIR      82  44  26 SW5       29.93S                  
6HR MIN TEMP:  82; 6HR MAX TEMP: 104;                                

ARTESIA        FAIR      88  46  23 SW10      29.95R                  
CARLSBAD       FAIR      86  53  32 SE5       29.92R                  
6HR MIN TEMP:  86; 6HR MAX TEMP: 103;                                

HOBBS          FAIR      88  59  37 S16G23    29.98R                  


$$